TimeEDT,TemperatureF,Dew PointF,Humidity,Sea Level PressureIn,VisibilityMPH,Wind Direction,Wind SpeedMPH,Gust SpeedMPH,PrecipitationIn,Events,Conditions,WindDirDegrees,DateUTC
12:53 AM,68.0,59.0,73,29.92,10.0,WNW,9.2,-,N/A,,Unknown,300,2011-10-20 04:53:00
1:53 AM,66.9,59.0,76,29.91,10.0,NW,13.8,-,N/A,,Unknown,320,2011-10-20 05:53:00
2:53 AM,66.0,59.0,78,29.93,10.0,NW,5.8,-,N/A,,Clear,310,2011-10-20 06:53:00
4:53 AM,64.0,59.0,84,29.91,10.0,NNW,3.5,-,N/A,,Clear,330,2011-10-20 08:53:00
7:53 AM,62.1,60.1,93,29.99,10.0,South,3.5,-,N/A,,Clear,190,2011-10-20 11:53:00
8:53 AM,68.0,59.0,73,30.01,10.0,Calm,Calm,-,N/A,,Partly Cloudy,0,2011-10-20 12:53:00
9:53 AM,73.9,55.9,53,30.02,10.0,North,4.6,-,N/A,,Partly Cloudy,350,2011-10-20 13:53:00
10:53 AM,75.0,57.0,53,30.04,10.0,NW,10.4,-,N/A,,Scattered Clouds,320,2011-10-20 14:53:00
11:53 AM,75.0,59.0,57,30.05,10.0,NNW,8.1,-,N/A,,Scattered Clouds,330,2011-10-20 15:53:00
12:53 PM,75.0,55.9,51,30.04,10.0,NNW,11.5,-,N/A,,Overcast,340,2011-10-20 16:53:00
1:53 PM,77.0,59.0,54,30.01,10.0,NNE,8.1,-,N/A,,Mostly Cloudy,30,2011-10-20 17:53:00
2:53 PM,78.1,60.1,54,30.00,10.0,NNE,8.1,-,N/A,,Scattered Clouds,30,2011-10-20 18:53:00
3:53 PM,77.0,60.1,56,30.00,10.0,NNE,8.1,-,N/A,,Scattered Clouds,30,2011-10-20 19:53:00
4:53 PM,77.0,57.0,50,30.00,10.0,North,8.1,-,N/A,,Scattered Clouds,360,2011-10-20 20:53:00
5:53 PM,73.9,55.0,52,30.02,10.0,NNW,10.4,-,N/A,,Scattered Clouds,330,2011-10-20 21:53:00
6:53 PM,71.1,55.0,57,30.03,10.0,NNW,6.9,-,N/A,,Scattered Clouds,330,2011-10-20 22:53:00
7:53 PM,70.0,55.9,61,30.05,10.0,NNW,9.2,-,N/A,,Overcast,340,2011-10-20 23:53:00
8:53 PM,69.1,55.9,63,30.06,10.0,NW,8.1,-,N/A,,Overcast,320,2011-10-21 00:53:00
9:53 PM,68.0,55.0,63,30.07,10.0,NNW,10.4,-,N/A,,Unknown,330,2011-10-21 01:53:00
10:53 PM,66.9,54.0,63,30.09,10.0,NNW,8.1,-,N/A,,Overcast,330,2011-10-21 02:53:00
11:53 PM,66.9,55.0,66,30.09,10.0,NNW,4.6,-,N/A,,Unknown,340,2011-10-21 03:53:00